| time (UTC) | temp F | wind direction | speed MPH | gust MPH | rain 1hr in | rain 24hr in | rain mn in | humidity % | barometer mb |
| 20260902110235 | 66 | 158 | 0.0 | 4.0 | 0.00 | 0.00 | 0.00 | 58 | 1019.3 |
| 20260902105215 | 67 | 128 | 3.0 | 6.0 | 0.00 | 0.00 | 0.00 | 55 | 1019.1 |
| 20260902104235 | 67 | 134 | 4.0 | 9.0 | 0.00 | 0.00 | 0.00 | 54 | 1019.1 |
| 20260902103215 | 66 | 116 | 3.0 | 6.0 | 0.00 | 0.00 | 0.00 | 54 | 1018.8 |
| 20260902102215 | 66 | 139 | 3.0 | 6.0 | 0.00 | 0.00 | 0.00 | 55 | 1018.9 |
| 20260902101215 | 66 | 75 | 2.0 | 3.0 | 0.00 | 0.00 | 0.00 | 57 | 1018.8 |
| 20260902100215 | 65 | 76 | 0.0 | 1.0 | 0.00 | 0.00 | 0.00 | 59 | 1019.3 |
| 20260902095215 | 65 | 65 | 3.0 | 4.0 | 0.00 | 0.00 | 0.00 | 61 | 1019.3 |
| 20260902094215 | 65 | 92 | 2.0 | 4.0 | 0.00 | 0.00 | 0.00 | 61 | 1019.4 |
| 20260902093215 | 65 | 59 | 4.0 | 8.0 | 0.00 | 0.00 | 0.00 | 61 | 1018.7 |
| 20260902092215 | 65 | 52 | 4.0 | 6.0 | 0.00 | 0.00 | 0.00 | 60 | 1018.8 |
| 20260902091257 | 64 | 52 | 3.0 | 4.0 | 0.00 | 0.00 | 0.00 | 62 | 1018.5 |
| 20260902090235 | 65 | 58 | 4.0 | 5.0 | 0.00 | 0.00 | 0.00 | 61 | 1018.9 |
| 20260902085215 | 65 | 56 | 4.0 | 5.0 | 0.00 | 0.00 | 0.00 | 60 | 1019.0 |
| 20260902084215 | 65 | 34 | 3.0 | 5.0 | 0.00 | 0.00 | 0.00 | 62 | 1019.0 |
| 20260902083215 | 65 | 341 | 5.0 | 6.0 | 0.00 | 0.00 | 0.00 | 58 | 1019.0 |
| 20260902082215 | 66 | 26 | 2.0 | 3.0 | 0.00 | 0.00 | 0.00 | 58 | 1019.4 |
| 20260902081217 | 66 | 51 | 2.0 | 4.0 | 0.00 | 0.00 | 0.00 | 57 | 1019.5 |
| 20260902080237 | 65 | 42 | 2.0 | 4.0 | 0.00 | 0.00 | 0.00 | 59 | 1019.0 |
| 20260902075217 | 65 | 329 | 3.0 | 4.0 | 0.00 | 0.00 | 0.00 | 57 | 1019.0 |
| 20260902074217 | 67 | 53 | 2.0 | 3.0 | 0.00 | 0.00 | 0.00 | 54 | 1019.2 |
| 20260902073217 | 67 | 75 | 5.0 | 7.0 | 0.00 | 0.00 | 0.00 | 51 | 1019.2 |
| 20260902072217 | 66 | 0.0 | 1.0 | 0.00 | 0.00 | 0.00 | 50 | 1018.7 | |
| 20260902071257 | 66 | 355 | 0.0 | 1.0 | 0.00 | 0.00 | 0.00 | 51 | 1018.6 |
| 20260902070217 | 65 | 355 | 0.0 | 1.0 | 0.00 | 0.00 | 0.00 | 53 | 1018.3 |
| 20260902065237 | 65 | 355 | 2.0 | 3.0 | 0.00 | 0.00 | 0.00 | 58 | 1018.4 |
| 20260902064217 | 66 | 355 | 1.0 | 2.0 | 0.00 | 0.00 | 0.00 | 57 | 1018.4 |
| 20260902063216 | 65 | 355 | 3.0 | 5.0 | 0.00 | 0.00 | 0.00 | 56 | 1018.0 |
| 20260902062217 | 66 | 355 | 2.0 | 2.0 | 0.00 | 0.00 | 0.00 | 56 | 1018.1 |
| 20260902061217 | 67 | 355 | 2.0 | 3.0 | 0.00 | 0.00 | 0.00 | 56 | 1018.2 |
| 20260902060216 | 67 | 355 | 1.0 | 2.0 | 0.00 | 0.00 | 0.00 | 56 | 1018.3 |
| 20260902055216 | 68 | 355 | 0.0 | 2.0 | 0.00 | 0.00 | 0.00 | 55 | 1018.5 |
| 20260902054236 | 68 | 355 | 3.0 | 3.0 | 0.00 | 0.00 | 0.00 | 55 | 1018.5 |
| 20260902053216 | 67 | 355 | 2.0 | 3.0 | 0.00 | 0.00 | 0.00 | 56 | 1017.8 |
| 20260902052216 | 67 | 355 | 3.0 | 4.0 | 0.00 | 0.00 | 0.00 | 57 | 1017.9 |
| 20260902051215 | 67 | 355 | 4.0 | 6.0 | 0.00 | 0.00 | 0.00 | 56 | 1017.9 |
| 20260902050215 | 68 | 355 | 4.0 | 5.0 | 0.00 | 0.00 | 0.00 | 54 | 1017.9 |
| 20260902045216 | 69 | 324 | 5.0 | 8.0 | 0.00 | 0.00 | 0.00 | 53 | 1018.0 |
| 20260902044215 | 70 | 319 | 3.0 | 4.0 | 0.00 | 0.00 | 0.00 | 50 | 1018.4 |
| 20260902043216 | 70 | 0.0 | 0.0 | 0.00 | 0.00 | 0.00 | 49 | 1018.3 | |
| 20260902042215 | 70 | 319 | 2.0 | 4.0 | 0.00 | 0.00 | 0.00 | 50 | 1018.4 |
| 20260902041215 | 70 | 257 | 2.0 | 3.0 | 0.00 | 0.00 | 0.00 | 51 | 1018.4 |
| 20260902040215 | 71 | 257 | 1.0 | 3.0 | 0.00 | 0.00 | 0.00 | 51 | 1018.6 |
| 20260902035215 | 71 | 38 | 3.0 | 4.0 | 0.00 | 0.00 | 0.00 | 53 | 1018.6 |
| 20260902034215 | 72 | 319 | 3.0 | 4.0 | 0.00 | 0.00 | 0.00 | 49 | 1018.8 |
| 20260902033215 | 73 | 0.0 | 0.0 | 0.00 | 0.00 | 0.00 | 44 | 1018.6 | |
| 20260902032215 | 74 | 198 | 1.0 | 3.0 | 0.00 | 0.00 | 0.00 | 42 | 1018.3 |
| 20260902031216 | 74 | 165 | 3.0 | 5.0 | 0.00 | 0.00 | 0.00 | 42 | 1018.2 |
| 20260902030215 | 75 | 156 | 4.0 | 7.0 | 0.00 | 0.00 | 0.00 | 39 | 1017.9 |
| 20260902025215 | 75 | 161 | 3.0 | 6.0 | 0.00 | 0.00 | 0.00 | 38 | 1017.9 |
| 20260902024215 | 75 | 178 | 6.0 | 12.0 | 0.00 | 0.00 | 0.00 | 38 | 1017.8 |
| 20260902023215 | 75 | 167 | 4.0 | 8.0 | 0.00 | 0.00 | 0.00 | 40 | 1017.8 |
| 20260902022215 | 75 | 178 | 4.0 | 7.0 | 0.00 | 0.00 | 0.00 | 42 | 1017.7 |
| 20260902021235 | 75 | 172 | 3.0 | 6.0 | 0.00 | 0.00 | 0.00 | 42 | 1017.8 |
| 20260902020215 | 75 | 187 | 8.0 | 14.0 | 0.00 | 0.00 | 0.00 | 41 | 1017.2 |
| 20260902015215 | 75 | 174 | 4.0 | 8.0 | 0.00 | 0.00 | 0.00 | 44 | 1017.2 |
| 20260902014215 | 76 | 188 | 6.0 | 9.0 | 0.00 | 0.00 | 0.00 | 44 | 1017.8 |
| 20260902013215 | 76 | 180 | 5.0 | 9.0 | 0.00 | 0.00 | 0.00 | 43 | 1017.5 |
| 20260902012215 | 77 | 159 | 5.0 | 11.0 | 0.00 | 0.00 | 0.00 | 43 | 1017.7 |
| 20260902011235 | 77 | 153 | 9.0 | 15.0 | 0.00 | 0.00 | 0.00 | 42 | 1017.7 |
| 20260902010215 | 77 | 156 | 6.0 | 12.0 | 0.00 | 0.00 | 0.00 | 41 | 1018.0 |
| 20260902005215 | 78 | 151 | 8.0 | 12.0 | 0.00 | 0.00 | 0.00 | 40 | 1018.1 |
| 20260902004215 | 77 | 161 | 6.0 | 13.0 | 0.00 | 0.01 | 0.00 | 40 | 1018.2 |
| 20260902003215 | 76 | 142 | 6.0 | 9.0 | 0.00 | 0.01 | 0.00 | 45 | 1017.6 |
| 20260902002235 | 76 | 112 | 10.0 | 15.0 | 0.00 | 0.01 | 0.00 | 47 | 1017.7 |
| 20260902001235 | 76 | 136 | 10.0 | 17.0 | 0.00 | 0.01 | 0.00 | 46 | 1017.8 |
| 20260902000215 | 77 | 155 | 10.0 | 16.0 | 0.00 | 0.01 | 0.00 | 45 | 1018.1 |
| 20260901235235 | 77 | 133 | 9.0 | 15.0 | 0.00 | 0.01 | 0.00 | 45 | 1018.4 |
| 20260901234215 | 76 | 117 | 7.0 | 11.0 | 0.00 | 0.01 | 0.00 | 46 | 1018.3 |
| 20260901233215 | 76 | 126 | 7.0 | 13.0 | 0.00 | 0.01 | 0.00 | 46 | 1018.3 |
| 20260901232215 | 77 | 147 | 5.0 | 13.0 | 0.00 | 0.01 | 0.00 | 45 | 1018.6 |
| 20260901231215 | 77 | 136 | 4.0 | 14.0 | 0.00 | 0.01 | 0.00 | 43 | 1018.6 |
| 20260901230215 | 77 | 104 | 10.0 | 14.0 | 0.00 | 0.01 | 0.00 | 43 | 1018.4 |
| 20260901225217 | 77 | 156 | 5.0 | 13.0 | 0.00 | 0.01 | 0.00 | 44 | 1018.5 |
| 20260901224217 | 77 | 153 | 9.0 | 15.0 | 0.00 | 0.01 | 0.00 | 45 | 1018.7 |
| 20260901223217 | 78 | 154 | 10.0 | 14.0 | 0.00 | 0.01 | 0.00 | 44 | 1019.3 |
| 20260901222217 | 77 | 164 | 2.0 | 10.0 | 0.00 | 0.01 | 0.00 | 47 | 1019.3 |
| 20260901221217 | 76 | 157 | 10.0 | 14.0 | 0.00 | 0.01 | 0.00 | 48 | 1019.3 |
| 20260901220217 | 75 | 111 | 6.0 | 11.0 | 0.00 | 0.01 | 0.00 | 48 | 1019.2 |
| 20260901215217 | 76 | 96 | 7.0 | 11.0 | 0.00 | 0.01 | 0.00 | 47 | 1019.8 |
| 20260901214217 | 78 | 167 | 8.0 | 14.0 | 0.00 | 0.01 | 0.00 | 42 | 1020.2 |
| 20260901213217 | 78 | 167 | 7.0 | 18.0 | 0.00 | 0.01 | 0.00 | 42 | 1020.3 |
| 20260901212216 | 74 | 139 | 8.0 | 12.0 | 0.00 | 0.01 | 0.00 | 47 | 1020.0 |
| 20260901211217 | 75 | 144 | 9.0 | 14.0 | 0.00 | 0.01 | 0.00 | 51 | 1020.5 |
| 20260901210216 | 76 | 250 | 4.0 | 9.0 | 0.00 | 0.01 | 0.00 | 45 | 1021.0 |
| 20260901205237 | 77 | 172 | 8.0 | 14.0 | 0.00 | 0.01 | 0.00 | 43 | 1020.9 |
| 20260901204236 | 76 | 187 | 6.0 | 9.0 | 0.00 | 0.01 | 0.00 | 47 | 1021.1 |
| 20260901203237 | 77 | 181 | 8.0 | 14.0 | 0.00 | 0.01 | 0.00 | 44 | 1021.0 |
| 20260901202216 | 77 | 220 | 7.0 | 19.0 | 0.00 | 0.01 | 0.00 | 45 | 1021.1 |
| 20260901201217 | 76 | 178 | 8.0 | 14.0 | 0.00 | 0.01 | 0.00 | 46 | 1021.4 |
| 20260901200216 | 76 | 168 | 7.0 | 12.0 | 0.00 | 0.01 | 0.00 | 50 | 1021.8 |
| 20260901195216 | 75 | 130 | 9.0 | 13.0 | 0.00 | 0.01 | 0.00 | 51 | 1021.8 |
| 20260901194217 | 75 | 143 | 4.0 | 10.0 | 0.00 | 0.01 | 0.00 | 51 | 1021.7 |
| 20260901193237 | 74 | 143 | 7.0 | 16.0 | 0.00 | 0.01 | 0.00 | 51 | 1021.8 |
| 20260901192216 | 74 | 94 | 7.0 | 12.0 | 0.00 | 0.01 | 0.00 | 52 | 1021.9 |
| 20260901191236 | 73 | 105 | 7.0 | 10.0 | 0.00 | 0.01 | 0.00 | 52 | 1022.0 |
| 20260901190216 | 72 | 138 | 4.0 | 12.0 | 0.00 | 0.01 | 0.00 | 54 | 1021.9 |
| 20260901185216 | 72 | 108 | 8.0 | 11.0 | 0.00 | 0.01 | 0.00 | 53 | 1021.9 |
| 20260901184216 | 72 | 99 | 4.0 | 9.0 | 0.00 | 0.01 | 0.00 | 54 | 1022.0 |
| 20260901183236 | 72 | 103 | 5.0 | 9.0 | 0.00 | 0.01 | 0.00 | 54 | 1022.2 |
| 20260901182216 | 71 | 142 | 7.0 | 10.0 | 0.00 | 0.01 | 0.00 | 56 | 1022.4 |
| 20260901181216 | 70 | 111 | 4.0 | 8.0 | 0.00 | 0.01 | 0.00 | 59 | 1022.2 |
| 20260901180216 | 69 | 109 | 2.0 | 6.0 | 0.00 | 0.01 | 0.00 | 59 | 1022.3 |
| 20260901175216 | 69 | 92 | 3.0 | 4.0 | 0.00 | 0.01 | 0.00 | 59 | 1022.5 |
| 20260901174236 | 69 | 101 | 5.0 | 8.0 | 0.00 | 0.01 | 0.00 | 58 | 1022.5 |
| 20260901173216 | 69 | 115 | 5.0 | 9.0 | 0.00 | 0.01 | 0.00 | 58 | 1022.5 |
| 20260901172216 | 68 | 89 | 6.0 | 9.0 | 0.00 | 0.01 | 0.00 | 59 | 1022.0 |
| 20260901171216 | 68 | 92 | 6.0 | 9.0 | 0.00 | 0.01 | 0.00 | 61 | 1022.2 |
| 20260901170216 | 68 | 151 | 6.0 | 9.0 | 0.00 | 0.01 | 0.00 | 60 | 1022.4 |
| 20260901165216 | 68 | 123 | 6.0 | 10.0 | 0.00 | 0.01 | 0.00 | 61 | 1022.1 |
| 20260901164216 | 67 | 144 | 4.0 | 5.0 | 0.00 | 0.01 | 0.00 | 62 | 1022.1 |
| 20260901163216 | 65 | 131 | 7.0 | 11.0 | 0.00 | 0.01 | 0.00 | 65 | 1021.7 |
| 20260901162216 | 65 | 90 | 7.0 | 8.0 | 0.00 | 0.01 | 0.00 | 65 | 1021.6 |
| 20260901161216 | 66 | 106 | 6.0 | 9.0 | 0.00 | 0.01 | 0.00 | 65 | 1021.7 |
| 20260901160216 | 67 | 156 | 3.0 | 7.0 | 0.00 | 0.01 | 0.00 | 64 | 1021.6 |
| 20260901155216 | 66 | 152 | 4.0 | 5.0 | 0.00 | 0.01 | 0.00 | 63 | 1021.6 |
| 20260901154216 | 66 | 149 | 0.0 | 1.0 | 0.00 | 0.01 | 0.00 | 63 | 1021.6 |
| 20260901153216 | 65 | 177 | 0.0 | 2.0 | 0.00 | 0.01 | 0.00 | 66 | 1021.7 |
| 20260901152216 | 64 | 177 | 1.0 | 3.0 | 0.00 | 0.01 | 0.00 | 68 | 1021.3 |
| 20260901151216 | 63 | 188 | 2.0 | 3.0 | 0.00 | 0.01 | 0.00 | 68 | 1021.3 |
| 20260901150236 | 62 | 220 | 3.0 | 5.0 | 0.00 | 0.01 | 0.00 | 71 | 1021.4 |
| 20260901145215 | 61 | 242 | 5.0 | 8.0 | 0.00 | 0.01 | 0.00 | 71 | 1021.0 |
| 20260901144216 | 61 | 229 | 2.0 | 3.0 | 0.00 | 0.01 | 0.00 | 72 | 1020.9 |
| 20260901143216 | 61 | 218 | 2.0 | 5.0 | 0.00 | 0.01 | 0.00 | 72 | 1021.1 |
| 20260901142236 | 61 | 248 | 2.0 | 4.0 | 0.00 | 0.01 | 0.00 | 72 | 1021.1 |
| 20260901141216 | 61 | 226 | 4.0 | 5.0 | 0.00 | 0.01 | 0.00 | 72 | 1021.2 |
| 20260901140236 | 60 | 329 | 1.0 | 2.0 | 0.00 | 0.01 | 0.00 | 72 | 1020.6 |
| 20260901135216 | 59 | 329 | 0.0 | 2.0 | 0.00 | 0.01 | 0.00 | 74 | 1020.4 |
| 20260901134215 | 58 | 329 | 3.0 | 4.0 | 0.00 | 0.01 | 0.00 | 76 | 1020.0 |
| 20260901133256 | 58 | 329 | 1.0 | 2.0 | 0.00 | 0.01 | 0.00 | 76 | 1019.9 |
| 20260901132215 | 58 | 293 | 2.0 | 4.0 | 0.00 | 0.01 | 0.00 | 76 | 1019.9 |
| 20260901131216 | 57 | 293 | 1.0 | 2.0 | 0.00 | 0.01 | 0.00 | 78 | 1019.8 |
| 20260901130216 | 57 | 139 | 0.0 | 1.0 | 0.00 | 0.01 | 0.00 | 79 | 1019.4 |
| 20260901125216 | 56 | 86 | 2.0 | 7.0 | 0.00 | 0.01 | 0.00 | 79 | 1019.3 |
| 20260901124215 | 57 | 287 | 1.0 | 2.0 | 0.00 | 0.01 | 0.00 | 79 | 1019.6 |
| 20260901123236 | 56 | 281 | 3.0 | 4.0 | 0.00 | 0.01 | 0.00 | 80 | 1019.5 |
| 20260901122215 | 56 | 0.0 | 0.0 | 0.00 | 0.01 | 0.00 | 80 | 1019.6 | |
| 20260901121216 | 56 | 324 | 3.0 | 4.0 | 0.00 | 0.01 | 0.00 | 82 | 1019.6 |
| 20260901120216 | 56 | 324 | 2.0 | 3.0 | 0.00 | 0.01 | 0.00 | 81 | 1020.1 |
| 20260901115217 | 56 | 299 | 2.0 | 3.0 | 0.00 | 0.01 | 0.00 | 81 | 1020.3 |
| 20260901114215 | 56 | 299 | 3.0 | 4.0 | 0.00 | 0.01 | 0.00 | 80 | 1020.2 |
| 20260901113236 | 57 | 299 | 1.0 | 2.0 | 0.00 | 0.01 | 0.00 | 80 | 1020.1 |
| 20260901112215 | 57 | 0.0 | 1.0 | 0.00 | 0.01 | 0.00 | 80 | 1020.0 | |
| 20260901111255 | 57 | 299 | 2.0 | 3.0 | 0.00 | 0.01 | 0.00 | 80 | 1020.0 |